{"data":{"norad_id":59548,"epoch":"2026-09-21T10:33:52.034976Z","epoch_age_seconds":86953,"freshness":"FRESH","line1":"1 59548U 24074Q   26264.44018559 -.00002846  00000+0 -93953-4 0  9998","line2":"2 59548  43.0013 317.8724 0000936 269.5915  90.4829 15.27572747135953","mean_motion":15.27572747,"eccentricity":9.36e-5,"inclination_deg":43.0013,"raan_deg":317.8724,"arg_perigee_deg":269.5915,"mean_anomaly_deg":90.4829,"bstar":-9.3953e-5,"rev_number":13595,"period_min":94.267196297395,"perigee_km":482.42860516543,"apogee_km":483.71302326825,"semimajor_km":6861.2078142168,"source":"CELESTRAK","updated_at":"2026-09-22T09:00:48.974164Z"}}